Year,Month,Day,Hour,Minute,Value (Times are PST for windspeed in km/hr)
2011,03,01,00,00,4.30
2011,03,01,00,01,3.40
2011,03,01,00,02,2.50
2011,03,01,00,03,2.80
2011,03,01,00,04,3.00
2011,03,01,00,05,3.30
2011,03,01,00,06,2.20
2011,03,01,00,07,3.00
2011,03,01,00,08,3.00
2011,03,01,00,09,3.90
2011,03,01,00,10,4.70
2011,03,01,00,11,4.30
2011,03,01,00,12,3.10
2011,03,01,00,13,4.30
2011,03,01,00,14,2.10
2011,03,01,00,15,0.20
2011,03,01,00,16,3.60
2011,03,01,00,17,4.00
2011,03,01,00,18,3.80
2011,03,01,00,19,4.30
2011,03,01,00,20,3.40
2011,03,01,00,21,2.30
2011,03,01,00,22,1.60
2011,03,01,00,23,1.00
2011,03,01,00,24,0.00
2011,03,01,00,25,0.60
2011,03,01,00,26,1.50
2011,03,01,00,27,1.80
2011,03,01,00,28,1.30
2011,03,01,00,29,2.00
2011,03,01,00,30,2.00
2011,03,01,00,31,1.80
2011,03,01,00,32,0.00
2011,03,01,00,33,0.30
2011,03,01,00,34,1.60
2011,03,01,00,35,2.20
2011,03,01,00,36,2.70
2011,03,01,00,37,5.60
2011,03,01,00,38,2.20
2011,03,01,00,39,0.90
2011,03,01,00,40,2.20
2011,03,01,00,41,1.70
2011,03,01,00,42,0.10
2011,03,01,00,43,1.00
2011,03,01,00,44,1.00
2011,03,01,00,45,0.30
2011,03,01,00,46,1.00
2011,03,01,00,47,0.10
2011,03,01,00,48,2.20
2011,03,01,00,49,3.40
2011,03,01,00,50,0.40
2011,03,01,00,51,1.20
2011,03,01,00,52,2.50
2011,03,01,00,53,3.70
2011,03,01,00,54,4.30
2011,03,01,00,55,3.40
2011,03,01,00,56,2.60
2011,03,01,00,57,3.70
2011,03,01,00,58,2.30
2011,03,01,00,59,3.50
2011,03,01,01,00,3.90
2011,03,01,01,01,3.10
2011,03,01,01,02,2.60
2011,03,01,01,03,2.90
2011,03,01,01,04,3.00
2011,03,01,01,05,2.90
2011,03,01,01,06,3.30
2011,03,01,01,07,2.80
2011,03,01,01,08,3.00
2011,03,01,01,09,3.30
2011,03,01,01,10,2.50
2011,03,01,01,11,3.30
2011,03,01,01,12,2.90
2011,03,01,01,13,3.40
2011,03,01,01,14,3.80
2011,03,01,01,15,3.20
2011,03,01,01,16,2.80
2011,03,01,01,17,2.60
2011,03,01,01,18,2.00
2011,03,01,01,19,2.70
2011,03,01,01,20,3.30
2011,03,01,01,21,3.00
2011,03,01,01,22,1.00
2011,03,01,01,23,0.40
2011,03,01,01,24,1.10
2011,03,01,01,25,0.00
2011,03,01,01,26,0.00
2011,03,01,01,27,0.00
2011,03,01,01,28,0.00
2011,03,01,01,29,0.30
2011,03,01,01,30,0.20
2011,03,01,01,31,0.60
2011,03,01,01,32,0.00
2011,03,01,01,33,0.00
2011,03,01,01,34,0.00
2011,03,01,01,35,0.30
2011,03,01,01,36,0.10
2011,03,01,01,37,0.00
2011,03,01,01,38,1.40
2011,03,01,01,39,2.30
2011,03,01,01,40,2.30
2011,03,01,01,41,1.10
2011,03,01,01,42,0.50
2011,03,01,01,43,1.10
2011,03,01,01,44,0.20
2011,03,01,01,45,0.20
2011,03,01,01,46,2.50
2011,03,01,01,47,2.60
2011,03,01,01,48,5.10
2011,03,01,01,49,3.40
2011,03,01,01,50,3.60
2011,03,01,01,51,2.70
2011,03,01,01,52,3.40
2011,03,01,01,53,1.20
2011,03,01,01,54,1.90
2011,03,01,01,55,2.70
2011,03,01,01,56,0.70
2011,03,01,01,57,2.40
2011,03,01,01,58,1.50
2011,03,01,01,59,1.00
2011,03,01,02,00,1.20
2011,03,01,02,01,2.10
2011,03,01,02,02,2.20
2011,03,01,02,03,1.40
2011,03,01,02,04,1.80
2011,03,01,02,05,2.30
2011,03,01,02,06,2.60
2011,03,01,02,07,2.60
2011,03,01,02,08,0.80
2011,03,01,02,09,1.50
2011,03,01,02,10,2.40
2011,03,01,02,11,1.80
2011,03,01,02,12,1.60
2011,03,01,02,13,0.60
2011,03,01,02,14,0.40
2011,03,01,02,15,0.20
2011,03,01,02,16,0.60
2011,03,01,02,17,0.50
2011,03,01,02,18,0.10
2011,03,01,02,19,0.20
2011,03,01,02,20,0.00
2011,03,01,02,21,0.00
2011,03,01,02,22,0.60
2011,03,01,02,23,0.20
2011,03,01,02,24,0.00
2011,03,01,02,25,0.10
2011,03,01,02,26,0.00
2011,03,01,02,27,0.10
2011,03,01,02,28,0.90
2011,03,01,02,29,3.10
2011,03,01,02,30,4.50
2011,03,01,02,31,5.10
2011,03,01,02,32,3.40
2011,03,01,02,33,1.20
2011,03,01,02,34,0.00
2011,03,01,02,35,0.00
2011,03,01,02,36,0.00
2011,03,01,02,37,0.00
2011,03,01,02,38,0.10
2011,03,01,02,39,0.00
2011,03,01,02,40,0.00
2011,03,01,02,41,0.00
2011,03,01,02,42,0.00
2011,03,01,02,43,0.00
2011,03,01,02,44,0.00
2011,03,01,02,45,2.20
2011,03,01,02,46,0.20
2011,03,01,02,47,0.00
2011,03,01,02,48,0.10
2011,03,01,02,49,0.00
2011,03,01,02,50,0.00
2011,03,01,02,51,0.00
2011,03,01,02,52,0.00
2011,03,01,02,53,0.00
2011,03,01,02,54,0.00
2011,03,01,02,55,0.00
2011,03,01,02,56,0.00
2011,03,01,02,57,0.00
2011,03,01,02,58,0.00
2011,03,01,02,59,0.00
2011,03,01,03,00,0.40
2011,03,01,03,01,0.20
2011,03,01,03,02,0.00
2011,03,01,03,03,0.00
2011,03,01,03,04,0.30
2011,03,01,03,05,0.50
2011,03,01,03,06,1.30
2011,03,01,03,07,1.50
2011,03,01,03,08,2.90
2011,03,01,03,09,3.10
2011,03,01,03,10,2.30
2011,03,01,03,11,2.40
2011,03,01,03,12,3.40
2011,03,01,03,13,2.30
2011,03,01,03,14,2.40
2011,03,01,03,15,2.20
2011,03,01,03,16,3.00
2011,03,01,03,17,3.10
2011,03,01,03,18,3.40
2011,03,01,03,19,3.10
2011,03,01,03,20,0.30
2011,03,01,03,21,0.40
2011,03,01,03,22,0.70
2011,03,01,03,23,0.70
2011,03,01,03,24,1.00
2011,03,01,03,25,0.50
2011,03,01,03,26,2.10
2011,03,01,03,27,1.20
2011,03,01,03,28,0.10
2011,03,01,03,29,0.20
2011,03,01,03,30,0.20
2011,03,01,03,31,0.00
2011,03,01,03,32,0.00
2011,03,01,03,33,0.10
2011,03,01,03,34,0.00
2011,03,01,03,35,0.20
2011,03,01,03,36,1.10
2011,03,01,03,37,0.00
2011,03,01,03,38,0.20
2011,03,01,03,39,0.00
2011,03,01,03,40,0.00
2011,03,01,03,41,0.00
2011,03,01,03,42,0.00
2011,03,01,03,43,0.10
2011,03,01,03,44,0.00
2011,03,01,03,45,0.40
2011,03,01,03,46,0.00
2011,03,01,03,47,0.20
2011,03,01,03,48,0.60
2011,03,01,03,49,0.20
2011,03,01,03,50,0.00
2011,03,01,03,51,0.00
2011,03,01,03,52,0.00
2011,03,01,03,53,0.50
2011,03,01,03,54,0.10
2011,03,01,03,55,0.00
2011,03,01,03,56,0.80
2011,03,01,03,57,0.00
2011,03,01,03,58,0.10
2011,03,01,03,59,0.00
2011,03,01,04,00,0.20
2011,03,01,04,01,0.60
2011,03,01,04,02,0.50
2011,03,01,04,03,0.10
2011,03,01,04,04,1.10
2011,03,01,04,05,0.00
2011,03,01,04,06,0.10
2011,03,01,04,07,0.00
2011,03,01,04,08,0.00
2011,03,01,04,09,0.00
2011,03,01,04,10,0.00
2011,03,01,04,11,0.00
2011,03,01,04,12,0.00
2011,03,01,04,13,0.10
2011,03,01,04,14,1.70
2011,03,01,04,15,0.20
2011,03,01,04,16,0.20
2011,03,01,04,17,1.90
2011,03,01,04,18,2.60
2011,03,01,04,19,3.00
2011,03,01,04,20,2.80
2011,03,01,04,21,2.70
2011,03,01,04,22,2.10
2011,03,01,04,23,2.00
2011,03,01,04,24,3.00
2011,03,01,04,25,1.80
2011,03,01,04,26,0.10
2011,03,01,04,27,0.10
2011,03,01,04,28,0.60
2011,03,01,04,29,2.40
2011,03,01,04,30,0.50
2011,03,01,04,31,1.40
2011,03,01,04,32,0.20
2011,03,01,04,33,0.30
2011,03,01,04,34,0.70
2011,03,01,04,35,2.00
2011,03,01,04,36,1.00
2011,03,01,04,37,0.00
2011,03,01,04,38,0.00
2011,03,01,04,39,0.00
2011,03,01,04,40,0.00
2011,03,01,04,41,0.10
2011,03,01,04,42,1.00
2011,03,01,04,43,1.20
2011,03,01,04,44,0.00
2011,03,01,04,45,0.00
2011,03,01,04,46,0.00
2011,03,01,04,47,0.60
2011,03,01,04,48,0.10
2011,03,01,04,49,0.00
2011,03,01,04,50,0.00
2011,03,01,04,51,0.00
2011,03,01,04,52,0.00
2011,03,01,04,53,0.00
2011,03,01,04,54,0.00
2011,03,01,04,55,0.00
2011,03,01,04,56,0.00
2011,03,01,04,57,0.40
2011,03,01,04,58,2.60
2011,03,01,04,59,3.00
2011,03,01,05,00,3.00
2011,03,01,05,01,2.30
2011,03,01,05,02,0.70
2011,03,01,05,03,0.10
2011,03,01,05,04,0.20
2011,03,01,05,05,0.10
2011,03,01,05,06,0.00
2011,03,01,05,07,0.00
2011,03,01,05,08,0.00
2011,03,01,05,09,0.00
2011,03,01,05,10,0.00
2011,03,01,05,11,1.50
2011,03,01,05,12,0.50
2011,03,01,05,13,1.30
2011,03,01,05,14,1.10
2011,03,01,05,15,1.60
2011,03,01,05,16,2.20
2011,03,01,05,17,0.20
2011,03,01,05,18,0.20
2011,03,01,05,19,1.50
2011,03,01,05,20,0.40
2011,03,01,05,21,0.20
2011,03,01,05,22,0.00
2011,03,01,05,23,0.10
2011,03,01,05,24,0.30
2011,03,01,05,25,0.10
2011,03,01,05,26,0.00
2011,03,01,05,27,0.00
2011,03,01,05,28,0.00
2011,03,01,05,29,0.00
2011,03,01,05,30,0.00
2011,03,01,05,31,0.10
2011,03,01,05,32,0.60
2011,03,01,05,33,0.10
2011,03,01,05,34,0.10
2011,03,01,05,35,0.00
2011,03,01,05,36,0.00
2011,03,01,05,37,0.00
2011,03,01,05,38,0.00
2011,03,01,05,39,0.00
2011,03,01,05,40,0.00
2011,03,01,05,41,0.00
2011,03,01,05,42,0.00
2011,03,01,05,43,0.00
2011,03,01,05,44,0.00
2011,03,01,05,45,0.00
2011,03,01,05,46,0.00
2011,03,01,05,47,0.00
2011,03,01,05,48,0.00
2011,03,01,05,49,0.00
2011,03,01,05,50,0.00
2011,03,01,05,51,0.00
2011,03,01,05,52,0.00
2011,03,01,05,53,1.00
2011,03,01,05,54,0.70
2011,03,01,05,55,0.00
2011,03,01,05,56,0.00
2011,03,01,05,57,0.00
2011,03,01,05,58,0.00
2011,03,01,05,59,0.00
2011,03,01,06,00,0.10
2011,03,01,06,01,0.00
2011,03,01,06,02,0.00
2011,03,01,06,03,0.00
2011,03,01,06,04,0.00
2011,03,01,06,05,0.00
2011,03,01,06,06,0.10
2011,03,01,06,07,0.00
2011,03,01,06,08,0.00
2011,03,01,06,09,0.00
2011,03,01,06,10,0.00
2011,03,01,06,11,0.00
2011,03,01,06,12,0.10
2011,03,01,06,13,0.00
2011,03,01,06,14,0.00
2011,03,01,06,15,0.00
2011,03,01,06,16,0.00
2011,03,01,06,17,0.00
2011,03,01,06,18,0.00
2011,03,01,06,19,0.00
2011,03,01,06,20,0.00
2011,03,01,06,21,0.00
2011,03,01,06,22,0.00
2011,03,01,06,23,0.00
2011,03,01,06,24,0.00
2011,03,01,06,25,0.20
2011,03,01,06,26,0.10
2011,03,01,06,27,0.00
2011,03,01,06,28,0.50
2011,03,01,06,29,0.00
2011,03,01,06,30,0.20
2011,03,01,06,31,1.10
2011,03,01,06,32,1.40
2011,03,01,06,33,0.20
2011,03,01,06,34,0.00
2011,03,01,06,35,0.00
2011,03,01,06,36,0.10
2011,03,01,06,37,0.30
2011,03,01,06,38,1.40
2011,03,01,06,39,0.00
2011,03,01,06,40,0.10
2011,03,01,06,41,0.00
2011,03,01,06,42,0.00
2011,03,01,06,43,0.70
2011,03,01,06,44,0.00
2011,03,01,06,45,0.00
2011,03,01,06,46,0.00
2011,03,01,06,47,0.00
2011,03,01,06,48,0.00
2011,03,01,06,49,0.00
2011,03,01,06,50,0.00
2011,03,01,06,51,0.00
2011,03,01,06,52,0.20
2011,03,01,06,53,0.00
2011,03,01,06,54,0.00
2011,03,01,06,55,0.00
2011,03,01,06,56,0.00
2011,03,01,06,57,0.00
2011,03,01,06,58,0.00
2011,03,01,06,59,0.00
2011,03,01,07,00,0.00
2011,03,01,07,01,0.00
2011,03,01,07,02,0.00
2011,03,01,07,03,0.10
2011,03,01,07,04,0.00
2011,03,01,07,05,0.00
2011,03,01,07,06,0.00
2011,03,01,07,07,0.10
2011,03,01,07,08,0.30
2011,03,01,07,09,2.20
2011,03,01,07,10,1.00
2011,03,01,07,11,0.00
2011,03,01,07,12,0.00
2011,03,01,07,13,0.00
2011,03,01,07,14,0.00
2011,03,01,07,15,0.00
2011,03,01,07,16,0.00
2011,03,01,07,17,0.00
2011,03,01,07,18,0.00
2011,03,01,07,19,0.00
2011,03,01,07,20,0.00
2011,03,01,07,21,0.00
2011,03,01,07,22,0.80
2011,03,01,07,23,2.10
2011,03,01,07,24,3.90
2011,03,01,07,25,1.20
2011,03,01,07,26,0.20
2011,03,01,07,27,0.00
2011,03,01,07,28,0.00
2011,03,01,07,29,0.00
2011,03,01,07,30,0.80
2011,03,01,07,31,0.60
2011,03,01,07,32,0.00
2011,03,01,07,33,0.00
2011,03,01,07,34,0.00
2011,03,01,07,35,0.00
2011,03,01,07,36,0.00
2011,03,01,07,37,0.00
2011,03,01,07,38,0.00
2011,03,01,07,39,0.00
2011,03,01,07,40,0.00
2011,03,01,07,41,0.00
2011,03,01,07,42,0.00
2011,03,01,07,43,0.00
2011,03,01,07,44,0.00
2011,03,01,07,45,0.00
2011,03,01,07,46,1.50
2011,03,01,07,47,0.60
2011,03,01,07,48,0.00
2011,03,01,07,49,0.00
2011,03,01,07,50,0.30
2011,03,01,07,51,0.40
2011,03,01,07,52,0.00
2011,03,01,07,53,0.00
2011,03,01,07,54,0.00
2011,03,01,07,55,0.00
2011,03,01,07,56,0.00
2011,03,01,07,57,0.30
2011,03,01,07,58,0.20
2011,03,01,07,59,0.30
2011,03,01,08,00,0.40
2011,03,01,08,01,0.00
2011,03,01,08,02,0.00
2011,03,01,08,03,0.00
2011,03,01,08,04,0.00
2011,03,01,08,05,0.90
2011,03,01,08,06,1.20
2011,03,01,08,07,1.20
2011,03,01,08,08,0.00
2011,03,01,08,09,0.00
2011,03,01,08,10,0.00
2011,03,01,08,11,0.00
2011,03,01,08,12,0.00
2011,03,01,08,13,0.00
2011,03,01,08,14,0.00
2011,03,01,08,15,0.10
2011,03,01,08,16,1.20
2011,03,01,08,17,1.60
2011,03,01,08,18,1.10
2011,03,01,08,19,1.20
2011,03,01,08,20,0.20
2011,03,01,08,21,0.00
2011,03,01,08,22,0.00
2011,03,01,08,23,0.00
2011,03,01,08,24,0.00
2011,03,01,08,25,0.00
2011,03,01,08,26,0.00
2011,03,01,08,27,0.00
2011,03,01,08,28,0.00
2011,03,01,08,29,0.00
2011,03,01,08,30,0.20
2011,03,01,08,31,0.00
2011,03,01,08,32,0.10
2011,03,01,08,33,0.20
2011,03,01,08,34,0.00
2011,03,01,08,35,0.10
2011,03,01,08,36,0.00
2011,03,01,08,37,0.10
2011,03,01,08,38,0.00
2011,03,01,08,39,0.30
2011,03,01,08,40,0.90
2011,03,01,08,41,0.00
2011,03,01,08,42,0.00
2011,03,01,08,43,0.10
2011,03,01,08,44,0.00
2011,03,01,08,45,0.00
2011,03,01,08,46,0.00
2011,03,01,08,47,0.30
2011,03,01,08,48,0.00
2011,03,01,08,49,0.00
2011,03,01,08,50,0.00
2011,03,01,08,51,0.00
2011,03,01,08,52,0.00
2011,03,01,08,53,0.00
2011,03,01,08,54,0.00
2011,03,01,08,55,0.00
2011,03,01,08,56,0.00
2011,03,01,08,57,0.00
2011,03,01,08,58,0.00
2011,03,01,08,59,0.10
2011,03,01,09,00,0.10
2011,03,01,09,01,0.00
2011,03,01,09,02,0.00
2011,03,01,09,03,0.00
2011,03,01,09,04,0.30
2011,03,01,09,05,0.10
2011,03,01,09,06,0.90
2011,03,01,09,07,0.60
2011,03,01,09,08,1.70
2011,03,01,09,09,0.60
2011,03,01,09,10,0.00
2011,03,01,09,11,0.00
2011,03,01,09,12,0.00
2011,03,01,09,13,0.10
2011,03,01,09,14,0.80
2011,03,01,09,15,0.50
2011,03,01,09,16,0.30
2011,03,01,09,17,0.00
2011,03,01,09,18,0.00
2011,03,01,09,19,0.10
2011,03,01,09,20,0.10
2011,03,01,09,21,0.00
2011,03,01,09,22,0.00
2011,03,01,09,23,0.00
2011,03,01,09,24,0.00
2011,03,01,09,25,0.40
2011,03,01,09,26,0.00
2011,03,01,09,27,0.00
2011,03,01,09,28,0.00
2011,03,01,09,29,0.10
2011,03,01,09,30,2.20
2011,03,01,09,31,5.10
2011,03,01,09,32,5.80
2011,03,01,09,33,5.60
2011,03,01,09,34,6.40
2011,03,01,09,35,4.40
2011,03,01,09,36,4.70
2011,03,01,09,37,7.00
2011,03,01,09,38,8.80
2011,03,01,09,39,6.40
2011,03,01,09,40,3.40
2011,03,01,09,41,2.70
2011,03,01,09,42,2.50
2011,03,01,09,43,3.40
2011,03,01,09,44,3.70
2011,03,01,09,45,3.60
2011,03,01,09,46,2.40
2011,03,01,09,47,2.60
2011,03,01,09,48,5.60
2011,03,01,09,49,6.40
2011,03,01,09,50,4.40
2011,03,01,09,51,5.50
2011,03,01,09,52,3.70
2011,03,01,09,53,4.30
2011,03,01,09,54,3.40
2011,03,01,09,55,3.50
2011,03,01,09,56,3.50
2011,03,01,09,57,6.40
2011,03,01,09,58,7.60
2011,03,01,09,59,6.00
2011,03,01,10,00,7.60
2011,03,01,10,01,6.40
2011,03,01,10,02,6.40
2011,03,01,10,03,7.20
2011,03,01,10,04,3.90
2011,03,01,10,05,3.60
2011,03,01,10,06,3.00
2011,03,01,10,07,4.10
2011,03,01,10,08,4.30
2011,03,01,10,09,3.90
2011,03,01,10,10,1.40
2011,03,01,10,11,1.60
2011,03,01,10,12,2.20
2011,03,01,10,13,3.30
2011,03,01,10,14,9.70
2011,03,01,10,15,8.90
2011,03,01,10,16,9.30
2011,03,01,10,17,11.30
2011,03,01,10,18,6.30
2011,03,01,10,19,8.00
2011,03,01,10,20,7.00
2011,03,01,10,21,9.60
2011,03,01,10,22,6.90
2011,03,01,10,23,8.90
2011,03,01,10,24,7.30
2011,03,01,10,25,9.30
2011,03,01,10,26,10.40
2011,03,01,10,27,9.50
2011,03,01,10,28,7.50
2011,03,01,10,29,5.50
2011,03,01,10,30,5.60
2011,03,01,10,31,6.40
2011,03,01,10,32,6.00
2011,03,01,10,33,5.30
2011,03,01,10,34,5.40
2011,03,01,10,35,8.10
2011,03,01,10,36,6.40
2011,03,01,10,37,4.30
2011,03,01,10,38,4.20
2011,03,01,10,39,5.10
2011,03,01,10,40,6.30
2011,03,01,10,41,4.10
2011,03,01,10,42,3.60
2011,03,01,10,43,4.40
2011,03,01,10,44,8.50
2011,03,01,10,45,8.60
2011,03,01,10,46,9.00
2011,03,01,10,47,4.20
2011,03,01,10,48,4.20
2011,03,01,10,49,7.00
2011,03,01,10,50,5.90
2011,03,01,10,51,10.60
2011,03,01,10,52,7.20
2011,03,01,10,53,11.60
2011,03,01,10,54,10.50
2011,03,01,10,55,8.50
2011,03,01,10,56,3.30
2011,03,01,10,57,4.30
2011,03,01,10,58,8.90
2011,03,01,10,59,8.70
2011,03,01,11,00,6.30
2011,03,01,11,01,6.50
2011,03,01,11,02,3.30
2011,03,01,11,03,5.60
2011,03,01,11,04,2.30
2011,03,01,11,05,6.70
2011,03,01,11,06,5.30
2011,03,01,11,07,9.20
2011,03,01,11,08,14.20
2011,03,01,11,09,10.60
2011,03,01,11,10,9.70
2011,03,01,11,11,6.80
2011,03,01,11,12,11.00
2011,03,01,11,13,8.80
2011,03,01,11,14,8.90
2011,03,01,11,15,9.00
2011,03,01,11,16,7.20
2011,03,01,11,17,13.00
2011,03,01,11,18,9.40
2011,03,01,11,19,12.00
2011,03,01,11,20,6.60
2011,03,01,11,21,12.60
2011,03,01,11,22,6.50
2011,03,01,11,23,6.20
2011,03,01,11,24,6.40
2011,03,01,11,25,3.70
2011,03,01,11,26,4.70
2011,03,01,11,27,6.80
2011,03,01,11,28,7.40
2011,03,01,11,29,6.80
2011,03,01,11,30,12.50
2011,03,01,11,31,10.80
2011,03,01,11,32,13.80
2011,03,01,11,33,7.70
2011,03,01,11,34,11.50
2011,03,01,11,35,9.90
2011,03,01,11,36,8.50
2011,03,01,11,37,7.60
2011,03,01,11,38,6.40
2011,03,01,11,39,12.90
2011,03,01,11,40,6.80
2011,03,01,11,41,6.80
2011,03,01,11,42,4.20
2011,03,01,11,43,6.50
2011,03,01,11,44,10.20
2011,03,01,11,45,9.00
2011,03,01,11,46,6.40
2011,03,01,11,47,7.80
2011,03,01,11,48,9.20
2011,03,01,11,49,6.10
2011,03,01,11,50,8.50
2011,03,01,11,51,6.10
2011,03,01,11,52,4.00
2011,03,01,11,53,6.20
2011,03,01,11,54,7.30
2011,03,01,11,55,4.60
2011,03,01,11,56,6.30
2011,03,01,11,57,8.20
2011,03,01,11,58,5.90
2011,03,01,11,59,6.10
2011,03,01,12,00,6.60
2011,03,01,12,01,7.10
2011,03,01,12,02,5.50
2011,03,01,12,03,5.30
2011,03,01,12,04,12.40
2011,03,01,12,05,12.60
2011,03,01,12,06,8.70
2011,03,01,12,07,6.50
2011,03,01,12,08,6.20
2011,03,01,12,09,11.40
2011,03,01,12,10,11.40
2011,03,01,12,11,6.80
2011,03,01,12,12,11.60
2011,03,01,12,13,10.70
2011,03,01,12,14,13.60
2011,03,01,12,15,8.20
2011,03,01,12,16,16.30
2011,03,01,12,17,12.80
2011,03,01,12,18,12.20
2011,03,01,12,19,13.00
2011,03,01,12,20,9.10
2011,03,01,12,21,9.70
2011,03,01,12,22,13.80
2011,03,01,12,23,12.20
2011,03,01,12,24,8.70
2011,03,01,12,25,16.00
2011,03,01,12,26,11.80
2011,03,01,12,27,5.10
2011,03,01,12,28,5.40
2011,03,01,12,29,3.40
2011,03,01,12,30,4.30
2011,03,01,12,31,11.30
2011,03,01,12,32,10.50
2011,03,01,12,33,6.70
2011,03,01,12,34,10.50
2011,03,01,12,35,10.10
2011,03,01,12,36,13.90
2011,03,01,12,37,12.00
2011,03,01,12,38,9.60
2011,03,01,12,39,9.10
2011,03,01,12,40,16.70
2011,03,01,12,41,11.40
2011,03,01,12,42,9.80
2011,03,01,12,43,10.60
2011,03,01,12,44,10.80
2011,03,01,12,45,15.30
2011,03,01,12,46,12.10
2011,03,01,12,47,5.80
2011,03,01,12,48,6.90
2011,03,01,12,49,7.30
2011,03,01,12,50,8.30
2011,03,01,12,51,8.20
2011,03,01,12,52,7.60
2011,03,01,12,53,7.10
2011,03,01,12,54,8.40
2011,03,01,12,55,9.70
2011,03,01,12,56,18.00
2011,03,01,12,57,15.30
2011,03,01,12,58,11.70
2011,03,01,12,59,11.40
2011,03,01,13,00,10.80
2011,03,01,13,01,13.80
2011,03,01,13,02,11.80
2011,03,01,13,03,11.80
2011,03,01,13,04,13.40
2011,03,01,13,05,8.80
2011,03,01,13,06,11.00
2011,03,01,13,07,11.80
2011,03,01,13,08,14.20
2011,03,01,13,09,12.20
2011,03,01,13,10,16.80
2011,03,01,13,11,14.70
2011,03,01,13,12,8.10
2011,03,01,13,13,10.40
2011,03,01,13,14,5.70
2011,03,01,13,15,11.30
2011,03,01,13,16,14.20
2011,03,01,13,17,10.10
2011,03,01,13,18,4.00
2011,03,01,13,19,12.70
2011,03,01,13,20,8.10
2011,03,01,13,21,11.80
2011,03,01,13,22,13.10
2011,03,01,13,23,13.70
2011,03,01,13,24,8.60
2011,03,01,13,25,8.60
2011,03,01,13,26,7.50
2011,03,01,13,27,6.70
2011,03,01,13,28,7.60
2011,03,01,13,29,8.80
2011,03,01,13,30,9.70
2011,03,01,13,31,8.10
2011,03,01,13,32,6.80
2011,03,01,13,33,8.00
2011,03,01,13,34,11.70
2011,03,01,13,35,10.90
2011,03,01,13,36,7.20
2011,03,01,13,37,4.70
2011,03,01,13,38,7.90
2011,03,01,13,39,7.40
2011,03,01,13,40,7.10
2011,03,01,13,41,8.60
2011,03,01,13,42,10.50
2011,03,01,13,43,5.00
2011,03,01,13,44,7.70
2011,03,01,13,45,11.10
2011,03,01,13,46,11.70
2011,03,01,13,47,8.10
2011,03,01,13,48,7.30
2011,03,01,13,49,9.50
2011,03,01,13,50,6.70
2011,03,01,13,51,4.50
2011,03,01,13,52,7.80
2011,03,01,13,53,8.10
2011,03,01,13,54,11.90
2011,03,01,13,55,8.40
2011,03,01,13,56,11.80
2011,03,01,13,57,11.50
2011,03,01,13,58,8.20
2011,03,01,13,59,10.00
2011,03,01,14,00,14.10
2011,03,01,14,01,12.30
2011,03,01,14,02,9.60
2011,03,01,14,03,10.80
2011,03,01,14,04,6.40
2011,03,01,14,05,7.60
2011,03,01,14,06,7.40
2011,03,01,14,07,16.70
2011,03,01,14,08,8.90
2011,03,01,14,09,11.60
2011,03,01,14,10,7.90
2011,03,01,14,11,14.70
2011,03,01,14,12,11.40
2011,03,01,14,13,10.10
2011,03,01,14,14,15.40
2011,03,01,14,15,12.60
2011,03,01,14,16,8.40
2011,03,01,14,17,8.20
2011,03,01,14,18,7.20
2011,03,01,14,19,9.30
2011,03,01,14,20,9.20
2011,03,01,14,21,11.20
2011,03,01,14,22,8.10
2011,03,01,14,23,13.00
2011,03,01,14,24,8.90
2011,03,01,14,25,11.30
2011,03,01,14,26,7.90
2011,03,01,14,27,6.60
2011,03,01,14,28,5.20
2011,03,01,14,29,9.60
2011,03,01,14,30,7.70
2011,03,01,14,31,8.20
2011,03,01,14,32,13.90
2011,03,01,14,33,11.80
2011,03,01,14,34,9.90
2011,03,01,14,35,11.50
2011,03,01,14,36,9.70
2011,03,01,14,37,12.70
2011,03,01,14,38,14.90
2011,03,01,14,39,11.80
2011,03,01,14,40,9.00
2011,03,01,14,41,8.80
2011,03,01,14,42,8.80
2011,03,01,14,43,11.30
2011,03,01,14,44,10.90
2011,03,01,14,45,7.90
2011,03,01,14,46,6.60
2011,03,01,14,47,10.40
2011,03,01,14,48,9.00
2011,03,01,14,49,13.30
2011,03,01,14,50,8.50
2011,03,01,14,51,6.30
2011,03,01,14,52,13.30
2011,03,01,14,53,11.90
2011,03,01,14,54,9.10
2011,03,01,14,55,9.50
2011,03,01,14,56,7.90
2011,03,01,14,57,7.60
2011,03,01,14,58,7.20
2011,03,01,14,59,4.80
2011,03,01,15,00,8.20
2011,03,01,15,01,9.50
2011,03,01,15,02,11.20
2011,03,01,15,03,7.10
2011,03,01,15,04,5.60
2011,03,01,15,05,5.90
2011,03,01,15,06,6.10
2011,03,01,15,07,8.10
2011,03,01,15,08,6.00
2011,03,01,15,09,6.80
2011,03,01,15,10,8.80
2011,03,01,15,11,5.90
2011,03,01,15,12,8.50
2011,03,01,15,13,7.00
2011,03,01,15,14,9.20
2011,03,01,15,15,8.70
2011,03,01,15,16,9.70
2011,03,01,15,17,8.30
2011,03,01,15,18,12.10
2011,03,01,15,19,10.00
2011,03,01,15,20,5.80
2011,03,01,15,21,6.80
2011,03,01,15,22,11.40
2011,03,01,15,23,7.20
2011,03,01,15,24,7.60
2011,03,01,15,25,7.80
2011,03,01,15,26,9.70
2011,03,01,15,27,5.10
2011,03,01,15,28,11.10
2011,03,01,15,29,13.80
2011,03,01,15,30,6.50
2011,03,01,15,31,3.40
2011,03,01,15,32,6.00
2011,03,01,15,33,6.40
2011,03,01,15,34,4.40
2011,03,01,15,35,6.80
2011,03,01,15,36,6.40
2011,03,01,15,37,8.90
2011,03,01,15,38,17.80
2011,03,01,15,39,13.70
2011,03,01,15,40,9.00
2011,03,01,15,41,14.10
2011,03,01,15,42,11.70
2011,03,01,15,43,6.00
2011,03,01,15,44,8.40
2011,03,01,15,45,9.70
2011,03,01,15,46,6.60
2011,03,01,15,47,12.00
2011,03,01,15,48,9.80
2011,03,01,15,49,10.80
2011,03,01,15,50,10.30
2011,03,01,15,51,12.40
2011,03,01,15,52,7.00
2011,03,01,15,53,11.00
2011,03,01,15,54,7.60
2011,03,01,15,55,8.60
2011,03,01,15,56,9.90
2011,03,01,15,57,14.60
2011,03,01,15,58,9.60
2011,03,01,15,59,10.70
2011,03,01,16,00,11.00
2011,03,01,16,01,6.40
2011,03,01,16,02,10.90
2011,03,01,16,03,8.90
2011,03,01,16,04,9.10
2011,03,01,16,05,10.70
2011,03,01,16,06,11.70
2011,03,01,16,07,12.00
2011,03,01,16,08,14.60
2011,03,01,16,09,10.90
2011,03,01,16,10,10.10
2011,03,01,16,11,4.00
2011,03,01,16,12,9.00
2011,03,01,16,13,8.60
2011,03,01,16,14,8.20
2011,03,01,16,15,5.40
2011,03,01,16,16,5.90
2011,03,01,16,17,8.20
2011,03,01,16,18,9.60
2011,03,01,16,19,7.10
2011,03,01,16,20,4.60
2011,03,01,16,21,7.20
2011,03,01,16,22,9.90
2011,03,01,16,23,6.30
2011,03,01,16,24,5.30
2011,03,01,16,25,4.10
2011,03,01,16,26,4.70
2011,03,01,16,27,4.70
2011,03,01,16,28,5.30
2011,03,01,16,29,4.00
2011,03,01,16,30,4.80
2011,03,01,16,31,7.60
2011,03,01,16,32,8.00
2011,03,01,16,33,7.60
2011,03,01,16,34,5.10
2011,03,01,16,35,8.60
2011,03,01,16,36,10.20
2011,03,01,16,37,6.50
2011,03,01,16,38,11.20
2011,03,01,16,39,5.80
2011,03,01,16,40,10.20
2011,03,01,16,41,6.60
2011,03,01,16,42,5.80
2011,03,01,16,43,7.10
2011,03,01,16,44,8.10
2011,03,01,16,45,8.30
2011,03,01,16,46,9.80
2011,03,01,16,47,7.50
2011,03,01,16,48,8.20
2011,03,01,16,49,6.50
2011,03,01,16,50,8.00
2011,03,01,16,51,8.60
2011,03,01,16,52,4.20
2011,03,01,16,53,6.40
2011,03,01,16,54,8.10
2011,03,01,16,55,5.60
2011,03,01,16,56,6.90
2011,03,01,16,57,9.10
2011,03,01,16,58,5.10
2011,03,01,16,59,5.80
2011,03,01,17,00,6.80
2011,03,01,17,01,7.50
2011,03,01,17,02,5.80
2011,03,01,17,03,5.40
2011,03,01,17,04,5.80
2011,03,01,17,05,4.30
2011,03,01,17,06,6.80
2011,03,01,17,07,5.80
2011,03,01,17,08,3.40
2011,03,01,17,09,3.50
2011,03,01,17,10,4.50
2011,03,01,17,11,3.90
2011,03,01,17,12,3.50
2011,03,01,17,13,5.60
2011,03,01,17,14,3.90
2011,03,01,17,15,6.70
2011,03,01,17,16,5.50
2011,03,01,17,17,2.40
2011,03,01,17,18,4.00
2011,03,01,17,19,5.60
2011,03,01,17,20,3.10
2011,03,01,17,21,3.50
2011,03,01,17,22,7.50
2011,03,01,17,23,4.40
2011,03,01,17,24,5.90
2011,03,01,17,25,5.60
2011,03,01,17,26,3.20
2011,03,01,17,27,5.70
2011,03,01,17,28,3.20
2011,03,01,17,29,1.50
2011,03,01,17,30,5.90
2011,03,01,17,31,4.60
2011,03,01,17,32,5.40
2011,03,01,17,33,5.20
2011,03,01,17,34,5.50
2011,03,01,17,35,4.90
2011,03,01,17,36,3.60
2011,03,01,17,37,5.00
2011,03,01,17,38,3.50
2011,03,01,17,39,6.00
2011,03,01,17,40,2.40
2011,03,01,17,41,4.10
2011,03,01,17,42,3.70
2011,03,01,17,43,5.70
2011,03,01,17,44,7.00
2011,03,01,17,45,4.30
2011,03,01,17,46,3.20
2011,03,01,17,47,2.20
2011,03,01,17,48,4.70
2011,03,01,17,49,4.60
2011,03,01,17,50,6.10
2011,03,01,17,51,3.60
2011,03,01,17,52,5.80
2011,03,01,17,53,3.80
2011,03,01,17,54,4.60
2011,03,01,17,55,7.80
2011,03,01,17,56,6.30
2011,03,01,17,57,6.10
2011,03,01,17,58,7.20
2011,03,01,17,59,7.60
2011,03,01,18,00,3.60